Temp
10 10 11 11 11 11 11 11 11 11 11 12 12 11 11 11 11 10 10 10 11 12 13 14 14 14 13 13 12 12 12 12 11 11 11 11 10 10 10 9 9 9 9 10 10 10 10 9 9 9 9 9 9 9 9 9 9 9 9 9 9 9 9 9 9 9 9 9 9
10 10 10 10 11 11 11 11 11 11 11 11 11 11 11 11 10 10 10 10 11 12 13 14 14 13 13 13 12 12 12 12 12 11 11 11 10 10 10 9 9 9 10 10 10 10 10 9 9 9 9 9 9 9 9 9 9 9 9 9 9 9 9 9 9 9 9 9 9
10 10 10 10 10 10 10 10 11 11 11 11 11 11 11 11 10 10 10 10 11 12 13 14 13 13 13 13 12 12 12 12 12 11 11 10 10 10 10 9 9 10 10 10 10 10 9 9 9 9 9 9 9 9 9 9 9 9 9 9 9 9 9 9 9 9 9 9 9
9 9 9 10 10 10 10 10 11 11 11 11 11 11 11 11 10 10 10 10 11 12 13 13 13 13 13 12 12 12 12 12 11 11 11 10 10 10 10 10 10 10 10 10 10 9 9 9 9 9 9 9 9 9 9 9 9 9 9 9 9 9 9 9 9 9 9 9 8
9 9 9 9 10 10 10 10 11 11 11 11 11 11 11 10 10 10 10 11 12 13 13 13 13 13 12 12 12 12 12 11 11 11 11 10 10 10 10 10 10 10 10 10 10 9 9 9 9 9 9 9 9 9 9 9 9 9 9 9 8 8 8 9 9 9 8 8 9
9 9 9 10 10 10 10 10 11 11 11 11 10 10 10 10 10 10 11 11 12 13 13 13 13 12 12 12 12 11 11 11 11 11 10 10 10 10 10 10 10 10 10 10 9 9 9 9 9 9 9 9 9 9 9 8 8 8 8 8 8 8 8 9 9 9 8 9 9
10 10 10 10 10 10 10 10 10 10 10 10 10 10 10 10 10 11 11 12 13 13 13 12 12 12 12 12 11 11 11 11 11 10 10 10 10 10 10 10 10 10 9 9 9 9 9 9 9 9 9 9 9 9 8 8 8 8 8 8 9 9 9 9 9 8 8 9 9
9 10 10 10 10 10 10 10 10 10 10 10 10 10 10 10 10 11 12 12 12 12 12 12 12 12 12 11 11 11 11 11 10 10 10 10 10 10 10 9 9 9 9 9 9 9 9 9 9 9 8 8 8 8 8 8 8 8 8 8 9 9 9 9 8 8 8 9 9
9 9 9 9 10 10 10 10 10 10 10 10 10 10 10 10 10 11 12 12 12 12 12 12 12 12 11 11 11 11 10 10 10 10 10 10 10 10 9 9 9 9 9 9 9 9 9 9 8 8 8 8 8 8 8 8 8 8 8 9 9 9 9 9 9 9 9 9 9
9 9 9 9 10 10 10 10 10 10 10 10 10 10 10 10 10 11 11 12 12 12 12 12 11 11 11 11 11 10 10 10 10 10 10 10 10 9 9 9 9 9 9 9 9 9 9 8 8 8 8 8 8 8 8 8 8 8 8 9 9 9 9 9 9 9 9 9 9
9 9 9 9 9 10 10 10 10 10 10 10 10 10 10 10 11 11 11 11 11 11 11 11 11 11 11 11 10 10 10 10 10 10 10 10 9 9 9 9 9 9 9 9 9 9 9 9 8 8 8 8 9 9 8 8 8 9 9 9 9 9 9 9 9 9 9 9 9
9 9 9 9 9 10 10 10 10 10 10 10 10 10 10 10 11 11 11 11 11 11 11 11 11 11 10 10 10 10 10 10 10 10 9 9 9 9 9 9 9 9 9 9 9 9 9 9 9 9 9 9 9 9 9 9 9 9 9 9 9 9 9 8 8 9 9 9 9
9 9 9 9 9 10 10 10 10 10 10 10 10 10 10 11 11 11 11 11 11 11 11 11 11 10 10 10 10 10 10 10 10 9 9 9 9 9 9 9 9 9 9 9 9 9 9 9 9 9 9 9 9 9 9 9 9 9 9 8 8 8 8 8 9 9 9 9 9
9 9 9 9 10 10 10 10 10 10 10 10 10 10 10 11 11 11 11 11 11 11 11 11 10 10 10 10 10 10 10 10 10 10 9 9 9 9 9 9 9 9 9 9 9 9 9 9 9 9 9 9 9 9 9 9 9 9 8 8 8 8 9 9 9 9 9 9 10
9 9 9 9 10 10 10 10 10 10 10 10 10 10 11 11 11 11 11 11 11 11 11 10 10 10 10 10 10 10 10 10 10 10 10 10 10 10 10 10 10 9 9 9 9 9 10 10 10 9 9 9 9 9 9 9 9 9 9 9 9 9 9 9 9 9 9 10 10
9 9 9 10 10 10 10 10 10 10 10 10 10 11 11 11 11 11 11 11 11 11 10 10 10 10 10 10 10 10 10 10 10 10 10 9 9 9 9 9 9 9 9 9 9 9 9 9 9 9 9 9 9 9 9 9 9 9 9 9 9 9 9 9 9 9 10 10 10
9 9 10 10 10 10 10 10 10 10 10 10 10 11 11 11 11 11 11 11 11 11 10 10 10 10 10 10 9 9 9 9 9 9 9 9 9 9 9 9 9 9 9 9 9 9 9 9 9 9 9 9 9 9 9 9 9 9 9 9 9 9 9 10 10 10 10 10 10
9 9 10 9 10 10 10 10 10 10 10 10 11 11 11 11 11 11 11 11 11 10 10 10 10 10 10 9 9 9 9 9 9 9 9 9 9 9 9 9 9 9 9 9 9 9 9 9 9 9 9 9 9 9 9 9 9 9 9 9 10 10 10 10 10 10 10 10 10
9 9 9 9 9 10 10 10 10 10 10 11 11 11 11 11 11 11 11 11 10 10 10 10 10 10 9 9 9 9 9 9 9 9 9 9 9 9 9 9 10 10 10 10 9 9 9 9 9 9 9 9 9 9 9 9 9 9 9 10 10 10 10 10 10 10 10 10 10
9 9 9 9 10 10 10 10 10 10 10 11 11 11 11 11 11 11 11 10 10 10 10 10 10 10 9 9 9 9 9 9 9 9 9 10 10 10 10 10 10 10 10 10 10 9 9 9 9 9 9 9 9 9 9 9 9 10 10 10 10 10 10 10 10 10 10 10 10
9 10 10 10 10 10 10 10 10 10 11 11 11 11 11 11 11 11 10 10 10 10 10 10 10 10 10 10 10 10 9 9 10 10 10 10 10 10 10 10 10 10 10 10 10 10 10 9 9 9 9 9 9 9 10 10 10 10 10 10 10 10 10 10 10 10 10 10 10
10 10 10 10 10 10 10 10 10 11 11 11 11 11 11 11 11 11 10 10 10 10 10 10 10 10 10 10 10 10 10 10 10 10 10 10 10 10 10 10 10 10 10 10 10 10 10 10 9 9 9 9 10 10 10 10 10 10 10 10 10 10 10 10 10 10 9 9 9
10 10 10 10 10 10 10 10 11 11 11 11 11 11 11 11 11 10 10 10 10 10 10 10 10 10 10 10 10 10 10 10 10 10 10 10 10 10 10 10 10 10 10 10 10 10 10 9 9 9 10 10 10 10 10 11 11 10 10 10 10 10 10 10 10 9 9 9 9
10 10 10 10 10 10 10 11 11 11 11 11 10 10 10 10 10 10 10 10 10 10 10 10 10 10 10 10 10 10 10 10 10 10 10 10 10 10 10 10 10 10 9 9 9 9 9 9 9 9 9 10 10 10 10 10 10 10 10 10 10 9 9 9 9 9 8 8 8
10 10 10 10 11 11 11 11 11 11 10 10 10 10 10 10 10 10 10 10 10 10 10 10 10 10 10 10 10 10 10 10 10 10 10 10 9 9 9 9 9 9 9 9 9 9 9 9 9 9 9 10 10 10 10 9 9 9 9 9 9 9 8 8 8 8 8 8 8
10 11 11 11 11 11 11 11 11 10 10 10 10 10 10 10 10 10 10 10 10 10 10 10 10 10 10 10 10 10 10 10 10 10 9 9 9 9 9 9 9 9 9 9 9 9 9 9 9 10 9 9 9 9 9 9 9 8 8 8 8 8 8 8 9 9 9 9 9
11 11 11 11 11 11 11 11 11 10 10 10 10 10 10 10 10 10 10 10 10 10 10 10 10 10 10 10 10 10 10 10 10 10 10 10 10 10 9 9 9 9 9 9 9 9 9 9 9 9 9 9 9 9 9 9 8 8 9 9 9 9 9 9 9 9 9 9 9
11 11 11 11 11 11 11 11 11 11 10 10 10 10 10 10 10 10 10 10 10 10 10 9 9 10 10 10 10 10 10 10 10 10 10 10 10 10 10 10 10 9 10 10 9 9 9 9 9 9 9 9 9 9 9 9 9 9 9 9 9 9 9 9 9 9 9 9 9
11 11 11 11 11 11 11 11 11 11 10 10 10 10 10 10 10 10 10 10 10 10 10 9 10 10 10 10 10 10 10 10 10 10 10 10 10 10 10 10 10 10 10 10 9 9 9 9 9 9 9 9 9 9 9 9 9 9 9 9 9 9 9 9 9 9 9 9 9
11 11 11 11 11 11 11 10 11 11 10 10 10 10 10 10 10 10 10 10 10 10 10 10 10 10 10 10 10 10 10 10 10 10 10 10 10 10 10 10 10 10 10 10 10 10 10 10 10 10 9 9 9 9 9 9 9 9 9 9 9 9 9 9 9 9 9 8 8
10 10 11 11 11 10 10 10 10 10 10 10 10 10 10 10 10 10 10 10 10 10 10 10 10 10 10 10 10 10 10 10 10 10 10 10 10 10 10 10 10 10 10 10 10 10 10 10 9 9 9 9 9 9 9 9 9 9 9 9 9 8 8 8 9 9 9 9 9
10 10 10 10 10 10 10 10 10 10 10 10 10 10 10 10 10 10 10 10 10 10 10 10 10 10 10 10 10 10 10 10 10 10 10 10 10 10 10 10 10 10 10 10 10 9 9 9 9 9 9 9 9 9 9 9 9 9 8 8 8 8 8 9 9 9 9 9 9
10 10 10 10 10 10 10 10 10 10 10 10 11 10 10 10 10 10 10 10 10 10 10 10 10 10 10 10 10 10 10 10 10 10 10 10 10 10 10 10 10 10 9 9 9 9 9 9 9 9 9 9 9 8 8 8 8 8 8 8 8 8 9 9 9 9 9 9 9
10 10 10 10 10 10 10 10 10 11 11 11 11 11 11 10 11 11 11 11 10 10 10 10 10 10 10 10 10 10 10 10 10 10 10 10 10 10 9 9 9 9 9 9 9 9 9 9 9 9 9 8 8 8 8 8 8 8 8 8 8 8 8 8 8 8 8 8 8
10 10 10 10 10 10 10 10 10 11 11 11 11 11 10 10 10 10 10 10 10 10 10 10 10 10 10 10 10 10 10 10 10 10 9 9 9 9 9 9 9 9 9 9 9 9 9 8 8 8 8 8 8 8 8 8 8 8 8 8 8 8 8 8 8 8 8 8 8
10 10 10 10 10 10 10 10 10 10 10 10 10 10 10 10 10 10 10 10 10 10 10 10 10 10 10 10 10 9 9 9 9 9 9 9 9 9 9 9 9 9 9 8 8 8 8 8 8 8 8 8 8 8 8 8 8 8 8 8 8 8 8 8 8 8 8 8 8
9 9 9 9 9 9 9 9 10 10 10 10 10 10 10 10 10 10 9 9 10 10 10 10 9 9 9 9 9 9 9 9 9 9 9 9 9 9 9 9 9 8 8 8 8 8 8 8 8 8 8 8 8 8 8 8 8 8 8 8 8 8 8 8 8 8 8 8 8
9 9 9 9 9 9 9 9 9 9 9 9 9 9 9 9 9 9 9 9 9 9 9 9 9 9 9 9 9 9 8 8 8 8 8 8 8 8 8 8 8 8 8 8 8 8 8 8 8 8 8 8 8 8 8 8 8 8 8 8 8 8 8 8 8 8 8 8 8
8 8 8 9 9 9 9 9 9 9 9 9 9 8 8 8 8 8 8 8 8 8 8 8 8 8 8 8 8 8 8 8 8 8 8 8 8 8 8 8 8 8 8 8 8 8 8 8 8 8 8 8 8 8 8 8 8 8 8 8 8 8 8 8 8 8 8 8 8
7 8 8 8 8 8 8 8 8 8 8 8 8 8 8 8 8 7 7 8 8 8 8 8 7 7 7 7 7 7 7 7 7 7 7 7 7 7 7 8 8 8 8 8 8 8 8 8 8 8 8 8 8 8 8 8 8 8 8 8 8 8 8 8 8 8 8 8 8
7 7 7 7 7 8 8 7 7 7 7 7 7 7 7 7 7 7 7 7 7 7 7 7 7 7 7 7 7 7 7 7 7 7 7 7 7 7 7 7 7 8 8 8 8 8 8 8 8 8 8 8 8 8 8 8 8 8 8 8 8 8 8 8 8 8 8 8 8
Height
1415 1417 1418 1420 1421 1422 1424 1425 1427 1428 1429 1430 1431 1432 1434 1436 1438 1440 1441 1442 1443 1444 1446 1447 1449 1451 1453 1455 1457 1459 1460 1462 1464 1465 1467 1469 1470 1472 1473 1474 1475 1476 1477 1478 1479 1479 1480 1481 1481 1482 1482 1483 1484 1485 1486 1487 1487 1488 1489 1490 1491 1492 1492 1493 1493 1494 1495 1495 1495
1414 1416 1417 1419 1420 1422 1423 1424 1426 1427 1428 1430 1431 1432 1434 1436 1437 1439 1441 1442 1443 1444 1445 1447 1449 1451 1452 1454 1456 1458 1460 1462 1463 1465 1467 1468 1470 1471 1472 1473 1475 1476 1476 1477 1478 1479 1479 1480 1481 1481 1482 1482 1483 1484 1485 1486 1487 1487 1488 1489 1490 1491 1492 1492 1493 1493 1494 1494 1494
1414 1416 1417 1418 1419 1421 1422 1423 1425 1427 1428 1429 1430 1432 1434 1436 1437 1439 1440 1442 1443 1444 1445 1447 1448 1450 1452 1454 1456 1458 1459 1461 1462 1464 1466 1467 1469 1470 1472 1473 1474 1475 1476 1476 1477 1478 1479 1479 1480 1481 1481 1482 1483 1484 1484 1485 1486 1487 1488 1489 1489 1490 1491 1491 1492 1492 1493 1493 1493
1413 1415 1416 1417 1419 1420 1421 1422 1424 1426 1427 1429 1430 1432 1434 1435 1437 1438 1440 1442 1442 1443 1445 1447 1448 1450 1452 1454 1456 1457 1459 1460 1462 1463 1465 1466 1468 1469 1471 1472 1473 1474 1475 1476 1477 1477 1478 1479 1479 1480 1481 1482 1482 1483 1484 1485 1486 1487 1487 1488 1489 1489 1490 1491 1491 1492 1492 1492 1492
1413 1414 1416 1417 1418 1419 1421 1422 1424 1425 1427 1428 1430 1432 1433 1435 1436 1438 1439 1441 1442 1443 1445 1447 1448 1450 1452 1454 1455 1457 1458 1460 1461 1462 1464 1465 1467 1468 1470 1471 1472 1473 1474 1475 1476 1477 1477 1478 1479 1479 1480 1481 1482 1483 1484 1485 1485 1486 1487 1487 1488 1489 1489 1490 1491 1491 1491 1491 1492
1413 1414 1415 1417 1418 1419 1420 1422 1423 1425 1427 1428 1430 1431 1432 1434 1435 1437 1438 1440 1442 1443 1445 1447 1448 1450 1452 1453 1455 1456 1457 1459 1460 1462 1463 1465 1466 1468 1469 1470 1471 1472 1473 1474 1475 1476 1477 1477 1478 1479 1480 1480 1481 1482 1483 1484 1485 1485 1486 1487 1487 1488 1488 1489 1489 1490 1490 1490 1491
1412 1413 1415 1416 1417 1418 1420 1422 1423 1424 1426 1428 1429 1431 1432 1433 1434 1435 1437 1439 1441 1443 1445 1446 1448 1450 1452 1453 1454 1456 1457 1458 1459 1461 1462 1464 1465 1467 1468 1469 1470 1472 1472 1473 1474 1475 1476 1476 1477 1478 1479 1480 1481 1482 1482 1483 1484 1484 1485 1486 1487 1487 1487 1488 1488 1489 1489 1489 1489
1412 1413 1414 1416 1417 1419 1420 1421 1422 1424 1426 1427 1429 1430 1431 1432 1434 1435 1437 1439 1441 1442 1444 1446 1448 1450 1451 1452 1454 1455 1456 1457 1458 1460 1461 1463 1464 1466 1467 1468 1469 1470 1471 1472 1473 1474 1475 1476 1476 1477 1478 1479 1480 1481 1482 1482 1483 1483 1484 1485 1486 1486 1487 1487 1487 1488 1488 1488 1488
1412 1413 1414 1416 1417 1419 1420 1421 1422 1423 1425 1427 1428 1430 1431 1432 1433 1435 1437 1438 1440 1442 1444 1446 1447 1449 1451 1452 1453 1454 1455 1457 1458 1459 1461 1462 1464 1465 1466 1467 1468 1469 1470 1471 1472 1473 1474 1475 1476 1476 1477 1478 1479 1480 1481 1482 1482 1482 1483 1484 1485 1485 1486 1486 1486 1487 1487 1487 1487
1411 1413 1414 1416 1417 1418 1419 1421 1422 1423 1425 1427 1428 1429 1430 1432 1433 1434 1436 1438 1440 1442 1444 1445 1447 1449 1450 1452 1453 1454 1455 1456 1457 1458 1460 1461 1463 1464 1465 1467 1467 1468 1469 1470 1471 1472 1473 1474 1475 1476 1477 1477 1478 1479 1480 1481 1481 1482 1482 1483 1484 1484 1485 1485 1485 1486 1486 1486 1487
1411 1413 1414 1415 1417 1418 1419 1420 1421 1423 1424 1426 1427 1429 1430 1431 1432 1434 1436 1438 1440 1442 1443 1445 1447 1448 1450 1451 1452 1453 1454 1455 1457 1458 1459 1460 1462 1463 1464 1466 1467 1467 1468 1469 1470 1471 1472 1473 1474 1475 1476 1477 1477 1478 1479 1480 1480 1481 1482 1482 1483 1483 1483 1484 1484 1485 1485 1485 1485
1411 1412 1414 1415 1416 1417 1419 1420 1421 1423 1424 1426 1427 1429 1430 1431 1433 1435 1437 1438 1440 1442 1444 1445 1447 1448 1450 1451 1452 1453 1454 1455 1456 1457 1458 1460 1461 1462 1463 1465 1466 1467 1467 1468 1469 1470 1471 1472 1473 1474 1475 1476 1477 1477 1478 1479 1479 1480 1481 1481 1482 1482 1482 1483 1483 1484 1484 1484 1484
1410 1412 1413 1415 1416 1417 1418 1420 1421 1422 1424 1425 1427 1428 1430 1431 1433 1435 1437 1439 1440 1442 1444 1445 1447 1448 1450 1451 1452 1452 1453 1455 1456 1457 1458 1459 1460 1462 1463 1464 1465 1466 1467 1468 1469 1470 1470 1472 1472 1473 1474 1475 1476 1477 1477 1478 1479 1479 1480 1481 1481 1481 1482 1482 1482 1483 1483 1483 1483
1410 1412 1413 1414 1416 1417 1418 1420 1421 1422 1424 1425 1427 1428 1430 1432 1434 1436 1437 1439 1441 1442 1444 1445 1447 1448 1449 1451 1452 1452 1453 1454 1455 1457 1458 1459 1460 1461 1462 1463 1464 1465 1466 1467 1468 1469 1470 1471 1472 1473 1473 1474 1475 1476 1477 1477 1478 1478 1479 1480 1480 1481 1481 1481 1482 1482 1482 1482 1483
1410 1411 1412 1414 1415 1417 1419 1420 1421 1422 1424 1425 1427 1428 1430 1432 1434 1436 1438 1440 1441 1443 1444 1446 1447 1448 1449 1450 1451 1452 1453 1454 1455 1456 1457 1458 1459 1460 1462 1462 1463 1465 1466 1467 1467 1468 1469 1470 1471 1472 1473 1474 1474 1475 1476 1477 1477 1478 1478 1479 1479 1480 1480 1481 1481 1482 1482 1482 1482
1410 1411 1412 1413 1415 1417 1418 1420 1422 1423 1424 1425 1427 1429 1431 1433 1435 1437 1438 1440 1442 1443 1445 1446 1447 1448 1449 1450 1451 1452 1453 1454 1455 1456 1457 1458 1459 1460 1461 1462 1463 1464 1465 1466 1467 1468 1469 1470 1471 1472 1472 1473 1474 1475 1475 1476 1477 1477 1478 1478 1479 1479 1480 1480 1480 1481 1481 1481 1481
1409 1410 1412 1413 1415 1417 1418 1420 1422 1423 1424 1426 1428 1430 1432 1434 1436 1437 1439 1441 1442 1443 1445 1446 1447 1448 1449 1450 1451 1452 1453 1454 1455 1456 1457 1458 1459 1460 1461 1462 1463 1464 1465 1466 1467 1468 1468 1469 1470 1471 1472 1472 1473 1474 1475 1475 1476 1477 1477 1478 1478 1479 1479 1479 1479 1480 1480 1480 1479
1409 1410 1411 1413 1415 1417 1418 1420 1422 1423 1425 1427 1429 1431 1433 1434 1436 1438 1439 1441 1442 1444 1445 1447 1447 1448 1449 1450 1451 1452 1453 1454 1455 1456 1457 1458 1459 1460 1461 1462 1463 1464 1465 1466 1467 1467 1468 1469 1470 1471 1471 1472 1473 1473 1474 1475 1476 1476 1477 1477 1478 1478 1478 1478 1478 1478 1478 1478 1478
1408 1410 1412 1413 1415 1417 1418 1420 1422 1424 1426 1428 1430 1432 1433 1435 1437 1438 1440 1442 1443 1445 1446 1447 1448 1449 1450 1451 1451 1452 1453 1454 1455 1456 1457 1458 1459 1460 1462 1462 1463 1464 1465 1466 1467 1467 1468 1468 1469 1470 1471 1472 1472 1473 1474 1475 1475 1476 1476 1477 1477 1477 1477 1477 1477 1477 1477 1477 1477
1408 1410 1412 1414 1415 1417 1418 1421 1422 1425 1427 1428 1431 1432 1434 1436 1437 1439 1441 1442 1444 1445 1446 1447 1448 1449 1450 1451 1452 1453 1454 1455 1456 1457 1457 1458 1459 1460 1461 1462 1463 1464 1464 1465 1466 1467 1467 1468 1469 1470 1471 1471 1472 1473 1473 1474 1475 1475 1476 1476 1476 1476 1476 1477 1477 1477 1477 1477 1477
1410 1411 1413 1414 1416 1417 1419 1421 1423 1425 1427 1429 1432 1433 1435 1437 1438 1440 1442 1443 1444 1445 1446 1447 1448 1449 1450 1451 1452 1453 1454 1455 1456 1457 1457 1458 1459 1460 1461 1462 1462 1463 1464 1465 1466 1467 1467 1468 1469 1469 1470 1471 1472 1472 1473 1473 1474 1474 1475 1475 1475 1475 1476 1476 1476 1476 1476 1476 1475
1411 1412 1414 1415 1417 1418 1420 1422 1424 1426 1428 1430 1432 1434 1436 1437 1439 1440 1442 1443 1444 1445 1446 1447 1448 1449 1450 1451 1452 1452 1453 1454 1455 1456 1457 1458 1459 1460 1460 1461 1462 1463 1464 1465 1465 1466 1467 1468 1468 1469 1470 1471 1471 1472 1472 1473 1473 1474 1474 1474 1474 1475 1475 1475 1475 1475 1474 1474 1474
1412 1413 1415 1416 1417 1419 1421 1423 1425 1427 1429 1431 1433 1435 1436 1438 1439 1441 1442 1442 1443 1445 1446 1447 1448 1449 1450 1451 1451 1452 1453 1453 1454 1455 1456 1457 1458 1459 1460 1461 1462 1462 1463 1464 1465 1466 1467 1467 1468 1469 1469 1470 1471 1471 1472 1472 1472 1473 1473 1473 1473 1473 1474 1473 1473 1473 1473 1473 1473
1412 1414 1415 1417 1418 1420 1422 1424 1426 1428 1430 1432 1433 1435 1436 1437 1439 1440 1441 1442 1443 1445 1446 1446 1447 1448 1450 1451 1451 1452 1453 1453 1454 1455 1456 1457 1458 1459 1460 1461 1462 1462 1463 1464 1465 1466 1466 1467 1468 1468 1469 1470 1470 1471 1471 1471 1472 1472 1472 1472 1472 1472 1472 1472 1472 1472 1472 1472 1472
1413 1415 1416 1418 1420 1422 1423 1425 1427 1429 1430 1432 1433 1434 1436 1437 1439 1440 1441 1442 1443 1444 1445 1446 1447 1447 1449 1450 1451 1452 1453 1454 1454 1455 1456 1457 1458 1459 1460 1461 1462 1463 1463 1464 1465 1465 1466 1467 1467 1468 1469 1469 1470 1470 1470 1471 1471 1471 1471 1471 1472 1472 1471 1471 1471 1471 1471 1471 1471
1414 1416 1418 1420 1421 1423 1425 1427 1428 1430 1431 1432 1434 1435 1437 1438 1439 1441 1442 1442 1443 1444 1445 1445 1446 1447 1448 1450 1451 1452 1452 1453 1454 1456 1457 1457 1458 1459 1460 1461 1462 1463 1463 1464 1465 1465 1466 1467 1467 1468 1468 1469 1469 1469 1470 1470 1470 1470 1470 1470 1470 1470 1470 1470 1470 1470 1470 1470 1470
1416 1417 1419 1421 1423 1424 1426 1428 1429 1431 1432 1434 1435 1437 1438 1439 1440 1441 1442 1443 1443 1444 1445 1446 1447 1447 1448 1449 1450 1451 1452 1453 1454 1455 1457 1457 1458 1459 1460 1461 1462 1462 1463 1464 1464 1465 1466 1466 1467 1467 1467 1468 1468 1468 1468 1469 1469 1469 1469 1469 1469 1469 1470 1470 1470 1470 1470 1469 1469
1417 1419 1421 1422 1424 1426 1427 1429 1431 1432 1434 1435 1436 1437 1439 1440 1441 1442 1442 1443 1444 1445 1446 1447 1447 1448 1449 1449 1450 1451 1452 1453 1454 1455 1457 1457 1458 1459 1460 1461 1462 1462 1463 1463 1464 1464 1465 1465 1466 1466 1466 1467 1467 1467 1467 1468 1468 1468 1468 1469 1469 1469 1469 1469 1469 1469 1469 1468 1468
1419 1420 1422 1423 1425 1427 1428 1430 1431 1433 1434 1435 1437 1438 1439 1440 1441 1442 1442 1443 1444 1445 1446 1447 1447 1448 1449 1450 1451 1451 1452 1453 1454 1455 1456 1457 1458 1459 1460 1460 1461 1462 1462 1462 1463 1463 1464 1464 1465 1465 1466 1466 1466 1467 1467 1467 1467 1468 1468 1468 1468 1468 1468 1468 1468 1468 1467 1467 1467
1420 1421 1422 1424 1426 1427 1428 1429 1431 1432 1434 1435 1436 1437 1438 1439 1440 1441 1442 1443 1444 1445 1446 1447 1447 1448 1449 1450 1451 1452 1453 1453 1454 1455 1456 1457 1457 1458 1459 1460 1460 1461 1461 1462 1462 1463 1463 1464 1464 1465 1465 1466 1466 1466 1467 1467 1467 1467 1467 1467 1467 1467 1467 1467 1467 1467 1467 1466 1466
1421 1422 1423 1425 1426 1427 1428 1429 1431 1432 1433 1434 1436 1437 1437 1438 1440 1441 1442 1442 1443 1444 1446 1447 1447 1447 1448 1450 1451 1452 1453 1453 1454 1455 1455 1456 1457 1457 1458 1459 1459 1460 1461 1461 1462 1462 1463 1463 1464 1464 1465 1465 1465 1465 1466 1466 1466 1466 1466 1466 1466 1466 1466 1466 1466 1466 1466 1465 1465
1422 1423 1424 1425 1426 1427 1428 1430 1431 1432 1432 1434 1435 1436 1437 1438 1439 1440 1441 1442 1443 1444 1445 1447 1447 1447 1448 1449 1451 1452 1452 1453 1453 1454 1455 1455 1456 1457 1457 1458 1459 1460 1461 1461 1462 1462 1462 1463 1463 1464 1464 1464 1464 1465 1465 1465 1465 1465 1465 1465 1465 1465 1465 1465 1465 1465 1465 1464 1464
1422 1423 1424 1426 1427 1428 1429 1430 1431 1432 1433 1434 1435 1436 1437 1438 1439 1440 1441 1442 1443 1444 1446 1447 1447 1448 1449 1450 1450 1451 1452 1452 1453 1454 1454 1455 1456 1457 1457 1458 1459 1460 1460 1461 1461 1462 1462 1462 1463 1463 1463 1463 1464 1464 1464 1464 1464 1465 1465 1465 1464 1464 1464 1464 1464 1464 1464 1464 1464
1423 1424 1425 1427 1427 1429 1430 1431 1432 1432 1434 1435 1436 1437 1437 1438 1439 1440 1442 1442 1443 1444 1445 1446 1447 1448 1449 1449 1450 1451 1451 1452 1453 1454 1454 1455 1456 1457 1457 1458 1459 1459 1460 1460 1461 1461 1462 1462 1462 1462 1463 1463 1463 1463 1463 1463 1464 1464 1464 1464 1464 1464 1464 1464 1464 1464 1464 1463 1463
1424 1425 1426 1427 1428 1429 1430 1431 1432 1433 1434 1435 1436 1437 1438 1439 1440 1441 1442 1442 1443 1444 1445 1446 1447 1447 1448 1449 1450 1450 1451 1452 1453 1454 1454 1455 1456 1457 1457 1458 1458 1459 1459 1460 1460 1461 1461 1462 1462 1462 1462 1462 1462 1462 1463 1463 1463 1463 1463 1463 1463 1463 1463 1463 1463 1463 1463 1463 1463
1426 1427 1427 1428 1429 1430 1431 1432 1432 1433 1434 1435 1436 1437 1438 1439 1440 1441 1442 1442 1443 1444 1445 1446 1446 1447 1448 1449 1450 1450 1451 1452 1453 1453 1454 1455 1456 1457 1457 1458 1458 1459 1459 1460 1460 1461 1461 1461 1462 1462 1462 1462 1462 1462 1462 1462 1462 1463 1463 1463 1463 1463 1463 1463 1463 1463 1463 1463 1463
1427 1428 1429 1429 1430 1431 1432 1432 1433 1434 1435 1436 1436 1437 1438 1439 1440 1441 1442 1442 1443 1444 1445 1446 1447 1447 1448 1449 1449 1450 1451 1452 1453 1453 1454 1455 1456 1457 1457 1457 1458 1459 1459 1460 1460 1460 1461 1461 1461 1461 1462 1462 1462 1462 1462 1462 1462 1462 1462 1463 1463 1463 1463 1463 1463 1463 1463 1463 1462
1429 1429 1430 1431 1431 1432 1432 1433 1434 1434 1435 1436 1437 1438 1438 1439 1440 1441 1442 1443 1443 1444 1445 1446 1447 1447 1448 1449 1449 1450 1451 1452 1453 1453 1454 1455 1456 1456 1457 1457 1458 1459 1459 1460 1460 1460 1460 1461 1461 1461 1461 1461 1461 1462 1462 1462 1462 1462 1462 1462 1462 1463 1463 1463 1463 1462 1462 1462 1462
1430 1430 1431 1431 1432 1432 1433 1433 1434 1435 1436 1437 1437 1438 1439 1440 1440 1441 1442 1443 1444 1444 1445 1446 1447 1447 1448 1449 1449 1450 1451 1452 1453 1454 1454 1455 1456 1457 1457 1458 1458 1459 1459 1459 1460 1460 1460 1460 1460 1461 1461 1461 1461 1461 1461 1462 1462 1462 1462 1462 1462 1462 1462 1462 1462 1462 1462 1462 1462
1430 1431 1432 1432 1432 1433 1433 1434 1435 1435 1436 1437 1437 1438 1439 1440 1441 1442 1442 1443 1444 1445 1445 1446 1447 1447 1448 1449 1450 1451 1452 1452 1453 1454 1455 1456 1456 1457 1457 1458 1458 1458 1459 1459 1459 1460 1460 1460 1460 1460 1460 1461 1461 1461 1461 1462 1462 1462 1462 1462 1462 1462 1462 1462 1462 1462 1462 1462 1462
1431 1432 1432 1433 1433 1433 1434 1434 1435 1436 1437 1437 1438 1439 1440 1441 1441 1442 1443 1443 1444 1445 1446 1447 1447 1448 1449 1450 1450 1451 1452 1453 1454 1454 1455 1456 1456 1457 1457 1457 1458 1458 1458 1459 1459 1459 1459 1460 1460 1460 1460 1460 1461 1461 1461 1461 1462 1462 1462 1462 1462 1462 1462 1462 1462 1462 1462 1462 1462
Wind_Speed
27 28 28 27 27 26 25 25 26 26 27 28 29 29 29 29 29 30 30 29 27 25 23 23 23 23 23 22 21 21 20 21 21 22 22 21 20 20 19 19 19 18 18 17 16 15 14 14 13 13 12 12 12 11 11 11 12 12 12 12 11 10 10 11 10 10 10 10 9
26 26 26 25 25 24 25 25 26 27 27 28 28 28 27 26 28 29 29 28 26 24 23 24 24 23 23 21 20 20 20 20 21 21 21 21 20 19 19 19 18 18 18 17 15 14 13 13 12 12 11 11 10 10 10 10 10 10 10 10 10 10 10 10 9 9 8 8 8
24 24 24 23 23 24 26 27 26 26 27 28 27 26 24 24 25 27 27 26 25 24 24 24 24 23 22 21 20 19 19 19 20 21 21 21 20 19 19 19 18 18 17 16 15 14 13 13 12 12 11 10 10 10 9 9 10 9 9 9 9 9 9 9 8 8 8 8 8
23 22 22 22 24 26 28 28 25 24 25 27 27 25 23 22 23 24 25 24 24 24 24 24 23 22 21 20 19 19 18 18 19 20 20 20 20 19 19 18 18 18 17 16 15 14 13 13 12 12 11 10 10 10 9 9 9 9 8 8 8 8 8 8 7 7 7 8 8
23 22 22 23 25 28 28 25 22 22 23 25 25 24 22 21 22 22 23 22 23 23 24 23 22 22 21 20 19 18 17 17 18 18 19 19 19 19 18 18 18 18 17 16 15 14 14 13 13 12 11 11 10 10 9 9 8 8 8 8 8 8 7 7 7 7 8 8 8
23 23 23 24 25 26 24 21 20 20 21 22 23 23 21 21 22 22 21 21 22 22 22 21 21 21 20 19 18 17 16 15 16 17 18 18 18 18 18 18 18 18 17 16 16 15 14 14 13 12 12 11 11 10 10 9 9 8 8 8 8 8 8 8 7 8 8 9 9
23 23 23 24 23 22 20 19 19 18 19 20 22 21 21 21 23 21 19 18 19 19 19 19 19 19 18 17 16 15 14 13 14 15 16 17 18 18 18 17 17 17 17 16 15 15 14 14 13 12 12 12 11 11 10 10 9 9 9 9 8 8 8 8 8 9 9 10 10
24 24 23 23 22 20 19 20 19 18 18 20 20 19 20 23 23 19 15 15 15 16 16 16 15 15 14 14 13 12 11 11 12 14 15 16 17 17 17 17 17 16 16 16 15 15 14 14 13 13 13 12 12 11 10 10 10 10 10 9 8 8 9 9 9 10 10 10 10
25 25 24 23 22 21 20 20 19 19 19 19 18 18 20 23 21 16 12 12 12 12 12 12 12 12 11 10 10 9 9 10 11 13 14 16 16 16 16 16 16 15 15 15 15 15 14 14 14 13 13 13 12 11 11 11 11 11 10 9 9 9 10 10 10 10 10 10 10
25 24 24 23 22 21 20 19 19 19 18 17 17 18 21 22 17 13 11 11 10 10 10 10 10 9 9 9 8 8 9 10 11 12 14 15 16 16 15 15 14 14 15 15 15 15 14 14 14 14 14 13 13 12 12 12 12 11 10 10 10 10 10 10 10 9 9 9 9
25 24 24 23 22 21 21 21 21 19 17 17 17 20 20 18 14 11 10 10 10 9 9 8 8 8 8 8 8 8 9 10 11 12 13 14 15 15 14 14 14 14 15 15 15 15 15 15 15 14 14 14 13 13 12 11 11 11 11 10 10 10 10 9 8 8 9 9 9
25 24 23 23 22 22 22 23 21 19 18 19 20 20 19 15 12 11 10 9 9 8 8 8 8 7 7 8 8 9 10 11 12 12 13 14 14 14 15 15 15 15 16 16 16 16 16 15 15 15 14 13 13 12 11 10 10 10 10 10 9 9 8 8 8 9 9 9 8
25 24 23 22 23 23 22 21 19 19 20 22 22 20 17 14 11 10 9 8 8 7 7 7 8 8 8 9 10 11 11 12 12 13 13 14 14 15 15 16 16 17 17 16 16 16 16 15 15 14 13 12 12 11 10 10 10 9 9 8 8 8 8 8 8 8 7 7 6
25 23 22 22 23 22 21 19 19 20 23 24 23 20 16 12 9 8 7 7 7 8 8 9 9 9 10 10 11 11 12 12 12 13 13 14 14 15 16 16 16 17 17 16 16 16 15 15 14 13 12 11 10 10 9 8 8 8 7 7 7 8 8 7 6 5 5 5 6
23 22 22 22 22 21 20 19 21 23 25 24 22 18 14 10 9 8 8 9 9 10 10 10 11 11 12 12 12 12 12 13 13 13 13 14 14 15 15 16 16 16 15 15 15 15 14 13 12 11 10 9 9 8 8 7 7 7 7 8 8 7 7 5 4 3 4 6 9
22 22 22 23 22 21 21 21 23 25 25 23 19 15 12 11 11 11 11 11 12 12 12 12 13 13 12 12 12 12 13 13 13 14 14 14 14 14 15 14 14 14 13 13 13 13 12 11 10 9 9 8 7 7 7 7 7 8 8 8 7 5 4 3 3 4 7 10 13
22 23 24 24 23 22 21 22 25 26 25 21 16 13 13 13 13 13 13 14 14 14 14 13 13 13 12 12 12 12 12 13 13 14 14 14 14 13 13 13 12 12 11 10 10 10 9 9 8 8 8 7 7 7 7 8 8 7 6 4 3 3 4 5 7 9 11 14 15
25 25 25 24 22 21 22 23 25 25 22 17 15 14 15 15 15 15 15 15 15 14 14 14 13 12 12 11 12 12 12 12 13 13 13 13 12 12 11 11 11 10 10 9 9 8 8 7 7 7 7 7 8 8 8 7 6 5 3 3 4 7 9 11 12 12 13 13 12
27 26 24 22 22 22 23 23 23 21 18 16 16 16 16 16 16 16 16 16 15 15 14 14 13 13 12 11 11 12 12 11 12 12 12 11 11 10 9 9 9 9 9 9 8 8 7 7 7 7 7 8 9 9 8 7 6 5 4 5 9 11 13 12 11 11 11 10 10
25 23 22 21 21 21 21 21 19 18 17 17 17 17 17 17 17 17 16 16 15 15 15 14 14 13 13 12 12 12 12 12 12 11 11 10 9 9 9 9 9 9 9 9 9 9 8 7 7 8 8 9 8 8 7 7 6 6 6 8 11 12 11 9 9 10 10 11 11
21 20 20 20 20 20 20 20 20 20 19 19 18 18 18 17 17 16 16 16 16 15 15 14 13 13 13 13 13 13 13 13 13 12 11 10 10 10 10 10 10 9 9 9 9 9 8 8 8 8 8 8 7 6 7 8 8 9 10 11 11 10 9 9 9 9 9 9 10
21 21 22 22 22 23 23 23 22 21 20 19 19 18 18 17 16 16 16 16 16 15 14 14 13 13 12 12 12 12 12 12 12 12 11 11 10 10 9 9 8 8 8 8 7 7 8 9 9 8 8 7 7 8 9 10 11 11 11 10 8 8 8 9 9 9 10 11 12
25 26 26 25 25 24 24 23 22 21 20 19 19 19 18 18 18 18 17 17 16 15 15 15 15 14 13 12 11 11 10 9 8 7 8 9 8 7 6 6 7 7 7 7 7 7 8 9 9 8 7 7 7 8 8 8 8 8 7 6 6 7 8 9 10 11 13 13 13
27 27 26 25 24 23 22 21 20 19 19 18 18 18 19 18 18 17 16 16 15 15 16 16 17 17 16 14 12 10 9 7 5 4 6 7 8 7 6 6 7 7 8 8 8 8 8 8 8 7 6 6 6 6 6 6 7 7 7 8 8 9 10 11 11 11 12 12 12
26 24 23 23 22 21 20 19 18 17 17 17 16 16 16 16 16 15 15 15 15 14 14 13 14 15 17 16 13 12 10 9 7 6 6 7 8 8 7 6 7 7 7 7 7 7 6 6 6 6 6 7 7 7 8 9 9 10 10 10 10 10 10 10 10 11 11 12 12
23 23 22 21 21 20 19 18 17 16 15 15 14 14 14 14 15 15 15 14 13 12 11 9 8 10 12 14 14 14 14 13 11 9 8 8 8 7 7 6 6 6 6 5 5 5 5 5 6 7 8 8 8 9 9 9 9 9 9 9 9 10 10 10 11 11 12 13 13
22 22 21 21 20 19 18 17 17 16 16 15 15 15 15 15 15 16 15 13 12 11 10 9 8 8 8 10 11 12 13 13 11 10 8 8 8 7 6 6 6 5 5 5 5 5 5 6 7 8 8 8 8 8 9 9 9 9 10 10 10 10 10 11 11 12 13 15 16
21 21 21 21 20 19 18 18 18 18 17 17 17 17 16 16 15 15 14 13 12 11 11 10 10 9 9 8 6 6 6 8 8 8 7 7 7 7 6 6 6 6 6 5 6 6 7 8 8 9 9 8 9 9 9 10 10 10 10 10 10 10 11 12 13 14 15 16 16
21 21 21 21 20 20 20 20 20 20 19 19 19 18 17 16 15 14 13 13 13 12 11 10 10 10 9 8 5 4 4 6 6 7 7 7 7 7 7 7 7 7 7 7 8 8 9 10 10 9 9 8 8 9 9 10 10 10 10 11 11 12 13 14 14 15 15 15 15
20 20 20 20 20 20 20 21 22 22 21 21 20 19 19 18 16 14 13 14 15 14 12 10 11 12 12 10 8 6 6 6 6 7 7 7 7 7 8 8 8 9 10 10 10 10 9 9 8 8 8 8 8 9 9 10 10 11 11 12 12 12 13 13 13 13 13 13 13
18 18 18 18 18 18 19 20 22 23 22 21 20 20 19 19 18 17 15 15 17 16 13 9 11 13 13 12 9 8 7 7 7 7 8 9 10 11 11 11 11 11 11 10 9 8 7 7 7 7 8 8 9 9 10 10 10 11 11 11 11 11 11 12 12 12 12 12 12
15 15 15 15 15 15 15 17 18 19 19 18 17 16 16 17 18 17 15 14 15 15 13 10 10 10 10 10 9 8 8 8 8 9 11 12 12 13 12 12 11 9 8 7 6 7 7 7 8 8 8 9 9 9 9 9 9 9 9 9 10 10 11 11 11 11 11 11 10
12 12 12 12 13 13 13 13 14 14 14 13 12 12 11 12 13 14 13 12 11 11 11 10 8 8 7 8 9 9 10 11 11 12 12 12 11 10 9 8 7 6 6 7 7 8 8 8 8 8 8 8 8 7 7 8 8 8 8 8 9 10 10 10 10 10 10 9 8
11 11 11 12 12 13 13 12 12 12 12 12 11 11 10 9 10 12 12 11 10 10 11 11 10 9 9 10 11 12 12 13 12 11 10 9 8 7 6 6 6 6 7 8 8 8 7 7 7 6 6 6 6 6 7 7 7 8 8 8 9 9 9 9 9 8 7 7 7
10 11 12 13 14 14 13 13 13 13 13 13 13 13 12 12 12 12 13 13 13 13 13 13 13 12 12 12 12 12 11 10 9 8 7 6 6 6 6 6 6 7 7 7 7 6 6 5 5 5 5 5 6 6 7 7 7 7 8 8 8 8 8 7 6 6 5 5 6
10 12 13 14 15 15 15 15 15 15 15 15 15 15 15 14 14 14 15 15 15 15 15 14 13 13 12 11 10 9 8 7 6 6 5 5 5 5 6 6 6 6 6 5 5 4 4 5 5 5 5 6 6 6 7 7 7 7 7 6 6 6 5 5 4 4 4 4 5
10 11 12 13 14 14 14 14 14 14 14 14 14 14 14 14 14 14 14 13 13 13 12 11 10 9 9 8 7 7 6 6 5 5 5 5 5 5 5 5 5 5 4 4 4 4 4 5 5 5 6 6 6 6 6 6 6 5 5 4 4 4 3 3 3 3 4 4 5
9 9 9 10 10 11 11 10 10 10 10 10 10 11 11 11 12 11 10 9 8 8 8 8 7 7 7 6 6 6 6 6 6 5 5 5 5 4 4 4 4 4 4 4 4 5 5 5 5 5 5 5 5 5 5 4 4 3 3 3 2 2 2 2 2 3 3 4 4
10 9 8 8 9 9 9 9 9 9 9 9 10 10 10 10 10 9 8 7 6 6 6 7 7 7 6 6 6 6 6 6 6 5 4 4 4 4 4 4 5 5 5 5 5 5 5 5 4 4 4 4 4 3 3 2 2 2 1 1 1 1 1 2 2 3 3 4 4
10 9 9 8 8 8 8 9 9 9 9 10 10 10 10 10 10 9 9 8 8 7 7 7 8 7 6 6 5 5 5 5 5 4 4 4 4 5 5 5 5 5 5 5 4 4 4 4 3 3 2 2 2 2 1 1 1 0 1 1 1 1 2 2 3 3 3 4 4
10 9 9 8 8 8 8 9 10 10 9 9 9 9 9 10 10 10 10 10 9 9 9 9 9 8 8 7 6 5 5 6 6 6 5 5 5 5 5 5 5 5 4 4 4 3 3 2 2 2 1 1 1 0 0 1 1 2 2 2 2 2 2 3 3 3 3 4 4
Wind_Direction
212 214 216 218 218 218 217 216 216 217 218 219 219 218 218 217 215 215 215 217 219 221 224 226 228 232 235 236 237 237 238 237 236 234 232 231 230 231 233 236 238 240 239 237 232 228 224 222 220 219 217 216 217 217 217 217 218 219 220 222 223 226 230 235 237 240 243 247 251
211 213 215 216 216 215 214 214 214 215 216 217 218 218 219 219 218 217 216 216 219 223 226 228 230 234 237 239 240 241 241 240 237 234 231 230 229 230 232 235 236 236 233 229 224 220 215 212 210 208 205 203 202 203 203 204 207 210 212 213 216 220 226 231 233 235 239 244 249
211 211 212 213 214 215 216 216 215 215 215 216 217 218 219 220 220 218 217 217 220 225 228 229 232 236 239 242 243 244 243 240 236 232 230 229 229 230 231 233 232 230 226 221 216 212 208 204 202 199 195 192 190 190 192 194 198 202 204 206 211 217 223 228 229 233 237 243 249
212 211 210 211 214 216 217 215 214 214 215 215 216 216 218 220 220 219 218 219 222 225 227 229 233 237 240 243 244 244 242 238 234 231 229 228 229 230 230 230 228 224 220 215 211 207 203 200 198 196 192 188 186 186 188 192 197 200 203 207 213 220 226 229 231 236 241 248 253
212 212 211 211 213 214 213 212 213 215 216 216 215 215 216 218 219 218 217 218 220 221 224 229 234 238 241 243 245 244 242 238 233 230 228 227 228 228 228 226 223 219 215 212 208 204 202 200 199 197 195 193 191 192 194 198 202 207 212 217 222 229 233 236 240 245 251 257 262
209 211 211 211 211 209 208 210 215 218 218 217 216 215 215 215 213 212 211 212 214 218 223 229 234 238 241 243 244 244 242 239 233 229 226 226 226 226 225 222 219 216 213 210 207 205 203 202 202 202 201 201 201 202 205 209 214 219 223 228 232 236 240 245 250 256 262 267 270
206 208 209 211 210 208 209 215 219 220 220 218 216 215 214 210 205 204 205 207 211 217 223 228 232 236 240 243 245 245 244 240 233 227 224 223 222 222 221 219 217 215 212 210 208 206 205 205 206 206 206 207 208 210 213 218 224 229 232 234 237 242 248 255 260 265 270 272 275
207 210 211 211 212 213 216 220 221 221 219 217 215 214 209 202 199 200 204 207 212 218 224 228 232 236 240 243 246 247 244 237 229 222 219 218 218 217 217 215 214 213 211 209 207 206 206 207 209 210 211 211 213 216 220 227 234 237 239 240 243 249 255 261 265 269 271 274 275
207 210 212 212 212 214 217 220 221 220 217 214 212 209 202 195 196 202 209 212 217 222 227 231 234 237 241 244 246 244 236 227 219 214 212 212 213 213 213 212 211 210 208 207 206 206 206 208 210 212 213 216 218 222 227 234 240 242 242 244 250 255 259 262 265 268 270 271 270
205 207 209 211 211 212 214 218 219 217 213 209 206 202 197 196 202 211 218 220 225 230 234 236 237 238 239 240 238 231 222 212 207 205 206 207 208 209 210 209 208 206 205 204 203 204 205 208 210 213 215 218 223 227 231 236 240 242 243 247 251 256 258 260 262 264 264 262 259
203 205 207 209 211 212 214 215 213 210 208 205 202 199 199 203 215 223 225 228 232 235 237 236 235 233 232 228 223 215 207 201 198 198 199 201 204 205 206 205 204 203 202 202 202 203 205 208 211 214 217 219 223 227 230 232 235 239 243 246 250 254 255 253 251 249 248 247 248
203 205 207 209 211 213 213 210 208 206 205 202 202 203 206 212 220 225 227 231 233 234 231 227 224 221 217 210 205 200 196 194 193 193 194 197 198 200 201 200 200 199 200 200 201 203 205 208 211 214 216 217 220 222 224 226 231 237 242 244 246 248 248 244 238 234 233 236 239
203 205 207 209 212 212 210 206 205 205 203 201 203 206 210 214 217 220 223 225 223 218 212 206 203 200 196 192 190 189 188 188 188 189 191 193 194 195 196 196 197 197 198 199 201 203 205 207 209 211 213 214 215 218 221 225 230 235 239 238 237 238 239 237 233 230 229 231 235
203 206 208 210 211 209 205 201 201 200 200 201 203 206 207 204 202 203 205 203 198 191 186 184 183 182 181 180 181 181 181 183 184 185 186 188 190 191 192 193 194 194 196 197 199 202 203 205 206 207 208 209 212 215 219 223 227 230 230 229 230 229 227 225 226 230 238 248 253
204 206 209 209 208 203 197 193 193 196 198 200 202 202 196 184 178 179 180 178 174 171 170 171 172 173 173 173 173 175 176 177 178 180 181 183 185 187 188 189 190 190 192 194 196 198 199 200 200 200 201 203 204 206 208 212 215 217 218 218 217 214 212 212 220 241 259 266 264
204 205 206 204 201 197 191 187 189 193 197 199 197 189 174 163 162 165 165 164 162 162 164 166 167 167 167 167 168 169 170 172 174 176 178 180 181 181 181 181 181 182 184 187 188 189 189 188 188 188 189 189 189 191 195 200 204 206 206 206 206 206 208 216 238 257 264 267 267
204 204 202 199 196 193 190 187 189 192 194 192 182 166 155 155 156 157 157 156 157 159 161 162 163 162 162 162 163 164 166 168 171 172 173 173 171 170 170 169 168 169 171 174 176 175 172 169 170 172 174 176 178 182 187 193 196 197 198 201 218 235 242 247 253 259 265 270 274
202 201 198 195 194 193 191 189 188 188 185 176 159 150 150 152 153 152 152 153 154 156 158 158 159 160 160 160 161 162 163 164 165 163 160 156 154 154 156 159 161 163 165 166 165 163 163 166 169 172 176 180 177 175 177 183 187 192 203 240 260 259 256 258 262 268 274 279 284
196 194 192 193 193 192 188 183 181 177 168 153 147 147 148 149 149 150 151 152 153 155 156 157 158 159 159 160 159 159 159 158 156 152 147 146 149 154 160 166 171 173 173 170 167 167 170 175 177 181 185 186 178 173 173 180 188 201 224 250 257 259 262 267 274 281 285 286 285
186 186 187 189 186 180 173 167 162 154 146 142 143 145 145 146 147 149 152 154 156 159 160 160 159 157 157 156 156 154 152 150 149 149 151 157 164 170 173 177 178 178 175 171 169 171 175 179 182 184 184 183 176 175 180 191 202 216 233 247 255 260 265 270 274 275 274 272 271
173 174 173 170 163 156 149 144 141 139 139 140 142 143 144 145 148 151 155 160 165 166 165 162 158 156 156 156 156 156 155 154 155 159 166 172 177 179 182 184 182 177 174 175 178 179 179 181 184 184 182 178 179 187 202 215 224 233 241 249 254 258 259 258 258 258 260 263 268
155 152 148 143 139 136 135 135 136 137 139 141 142 143 146 149 153 158 165 171 173 170 165 160 157 158 160 163 165 167 169 173 174 176 178 179 182 186 189 187 182 177 175 180 185 183 180 181 185 188 191 197 207 219 227 232 237 240 243 246 248 247 247 249 254 261 267 272 275
141 138 135 133 132 132 133 135 136 138 140 144 146 149 153 157 163 169 174 176 173 168 165 164 162 162 163 167 169 174 179 184 184 180 174 169 173 176 173 163 160 161 165 172 177 179 180 183 186 193 206 222 230 232 232 233 234 237 239 240 241 242 246 251 259 266 271 275 278
137 135 133 132 132 132 133 135 137 140 144 148 151 155 159 164 168 171 173 171 169 170 172 173 171 167 163 161 162 167 172 174 164 147 140 144 156 161 156 151 156 162 168 174 178 182 184 186 189 196 211 230 238 239 236 236 239 244 250 253 255 257 259 263 267 271 275 278 281
135 133 132 131 132 133 134 136 139 142 145 148 151 154 158 160 159 159 160 164 169 174 177 178 176 169 162 157 158 161 164 163 158 149 144 147 159 166 168 166 171 176 182 185 187 190 192 195 197 203 213 226 234 240 243 245 249 253 257 260 263 267 271 275 278 279 279 278 279
133 132 133 133 134 134 135 136 138 139 142 144 146 148 150 150 150 151 156 164 170 170 167 167 168 165 161 162 168 172 174 171 166 161 160 164 171 176 179 181 186 192 197 200 201 203 207 212 216 219 225 231 238 245 249 252 255 258 261 263 266 270 273 275 275 274 273 274 275
129 131 133 134 135 135 136 137 138 140 142 144 146 148 150 151 153 155 159 164 164 159 155 157 158 159 163 174 185 189 186 178 168 162 164 173 181 185 189 195 201 207 213 218 222 224 226 229 231 234 239 244 251 256 259 261 264 264 263 263 263 262 262 264 265 267 270 272 275
126 129 132 134 136 138 140 143 145 147 149 151 152 153 155 157 159 161 162 163 160 157 158 160 161 163 168 180 194 193 176 162 156 160 171 183 190 193 198 206 213 219 225 230 235 239 241 242 244 246 250 255 258 262 264 265 265 263 259 255 256 256 258 262 267 270 273 275 278
132 134 137 140 144 147 151 154 156 157 158 159 160 161 161 162 161 162 164 165 164 162 162 163 164 165 168 171 170 159 145 146 156 168 180 189 195 201 209 217 222 227 232 238 242 244 244 244 245 247 250 254 256 259 260 260 259 257 255 255 257 261 266 270 273 275 276 278 280
144 145 148 152 156 160 162 162 163 164 165 166 167 168 169 167 165 166 170 175 175 170 165 165 170 171 171 168 165 162 164 168 176 183 190 196 203 210 215 222 225 226 227 230 233 234 236 238 243 247 251 254 255 256 256 256 257 258 259 262 265 268 270 272 274 275 276 278 279
151 155 159 163 166 166 166 165 166 167 169 170 172 173 174 174 172 173 179 187 185 176 168 172 184 184 178 170 167 171 180 186 193 200 208 212 213 214 214 215 216 216 216 218 223 230 237 245 252 255 256 255 255 254 254 255 257 260 263 266 268 269 270 271 272 274 275 276 278
149 154 159 162 165 165 163 162 163 164 166 168 171 175 177 177 174 175 181 191 186 175 168 177 190 188 176 169 173 185 196 203 209 212 213 212 209 206 205 205 207 209 215 225 238 250 258 260 259 256 254 252 251 251 252 254 255 258 261 263 265 266 268 270 272 274 276 278 280
143 146 148 150 154 155 155 153 152 154 156 160 165 172 176 174 169 169 175 183 176 168 167 177 186 185 180 182 192 200 205 208 209 207 203 201 201 202 205 211 218 229 241 252 257 260 260 258 256 253 251 249 249 249 249 250 251 253 255 258 262 265 268 271 273 275 278 283 290
142 143 144 146 148 149 149 148 149 152 156 160 165 171 174 171 166 166 170 175 173 173 176 183 188 190 193 198 203 206 206 204 202 200 199 202 208 218 229 238 245 249 252 254 254 253 252 249 248 246 244 242 240 240 242 245 248 250 254 258 263 267 270 273 275 280 286 296 305
150 154 156 156 156 157 158 160 164 167 171 174 175 177 178 178 177 177 178 180 183 186 188 191 193 196 199 202 204 205 204 203 203 206 211 219 229 236 241 243 244 246 246 246 245 243 239 233 229 226 226 229 231 236 241 245 249 253 256 260 264 268 272 275 281 289 299 308 315
155 161 163 163 163 164 167 171 174 178 180 181 181 182 183 183 184 184 184 186 189 191 192 193 195 197 198 199 201 202 204 206 208 212 216 222 227 230 232 233 232 232 232 231 228 222 216 214 213 215 220 226 232 238 244 249 253 257 259 261 263 267 272 279 289 300 309 315 320
153 160 163 164 165 166 169 172 174 176 178 178 179 179 181 182 182 183 184 186 188 190 191 192 192 193 195 196 196 195 193 190 192 197 205 214 216 217 217 217 214 210 208 204 202 202 204 209 213 219 225 231 236 240 244 249 253 257 259 258 260 263 271 284 298 311 319 325 330
141 149 157 161 164 165 166 167 168 169 169 168 168 170 173 176 176 175 176 179 181 183 185 185 183 182 183 185 184 183 181 179 179 186 197 204 204 198 192 188 185 183 183 185 191 197 205 213 219 225 231 235 238 241 243 246 249 251 252 253 254 263 282 305 322 329 335 338 342
133 137 144 151 157 162 165 163 160 158 157 157 157 159 162 163 161 160 160 160 161 166 171 172 168 168 171 175 180 182 184 183 180 180 183 182 172 165 161 162 167 173 179 185 193 200 208 215 221 228 232 235 239 241 241 241 237 234 235 241 266 319 344 348 350 351 350 350 351
123 127 131 136 143 151 155 154 150 148 148 150 152 153 151 148 146 146 146 143 144 150 156 158 157 155 157 164 174 178 178 175 165 157 150 148 143 145 152 160 168 176 183 189 196 202 209 214 219 223 224 228 232 234 235 230 212 153 94 64 44 31 19 11 5 2 1 358 356
115 117 118 117 120 127 133 136 136 136 138 142 143 143 144 144 146 147 148 146 147 149 149 148 149 151 154 158 161 160 157 156 151 144 137 140 143 151 160 167 173 179 185 190 194 199 203 203 203 196 193 186 180 175 128 73 70 67 63 56 44 37 29 18 13 10 9 7 1